Location: Boissi�res
(45.2500°N, 2.3667°E)
Time: 00:22:52
(UTC+00:00)

ISS - Pass Details

Date: 18 September 2021
Orbit: 417 x 423 km, 51.6° (Epoch: 18 October)

Event Time Altitude Azimuth Distance (km) Brightness Sun altitude
Rises 18:44:04 0° 222° (SW) 2,349 0.5 -9.3°
Reaches altitude 10° 18:46:12 10° 216° (SW) 1,490 -0.6 -9.7°
Maximum altitude 18:49:24 43° 143° (SE) 598 -3.3 -10.2°
Enters shadow 18:52:08 13° 73° (ENE) 1,317 -1.8 -10.7°
